Year,Month,Day,Hour,Minute,Value (Times are PST for temperature in C)
2021,06,29,00,00,24.80
2021,06,29,00,01,24.80
2021,06,29,00,02,24.70
2021,06,29,00,03,24.70
2021,06,29,00,04,24.70
2021,06,29,00,05,24.60
2021,06,29,00,06,24.60
2021,06,29,00,07,24.50
2021,06,29,00,08,24.50
2021,06,29,00,09,24.40
2021,06,29,00,10,24.40
2021,06,29,00,11,24.30
2021,06,29,00,12,24.30
2021,06,29,00,13,24.30
2021,06,29,00,14,24.30
2021,06,29,00,15,24.30
2021,06,29,00,16,24.30
2021,06,29,00,17,24.20
2021,06,29,00,18,24.20
2021,06,29,00,19,24.20
2021,06,29,00,20,24.20
2021,06,29,00,21,24.10
2021,06,29,00,22,24.10
2021,06,29,00,23,24.10
2021,06,29,00,24,24.10
2021,06,29,00,25,24.10
2021,06,29,00,26,24.00
2021,06,29,00,27,24.00
2021,06,29,00,28,23.90
2021,06,29,00,29,23.90
2021,06,29,00,30,23.80
2021,06,29,00,31,23.80
2021,06,29,00,32,23.80
2021,06,29,00,33,23.80
2021,06,29,00,34,23.80
2021,06,29,00,35,23.80
2021,06,29,00,36,23.80
2021,06,29,00,37,23.80
2021,06,29,00,38,23.80
2021,06,29,00,39,23.80
2021,06,29,00,40,23.80
2021,06,29,00,41,23.80
2021,06,29,00,42,23.80
2021,06,29,00,43,23.80
2021,06,29,00,44,23.80
2021,06,29,00,45,23.80
2021,06,29,00,46,23.80
2021,06,29,00,47,23.80
2021,06,29,00,48,23.80
2021,06,29,00,49,23.80
2021,06,29,00,50,23.80
2021,06,29,00,51,23.80
2021,06,29,00,52,23.80
2021,06,29,00,53,23.80
2021,06,29,00,54,23.80
2021,06,29,00,55,23.80
2021,06,29,00,56,23.80
2021,06,29,00,57,23.90
2021,06,29,00,58,23.90
2021,06,29,00,59,24.00
2021,06,29,01,00,24.10
2021,06,29,01,01,24.20
2021,06,29,01,02,24.30
2021,06,29,01,03,24.40
2021,06,29,01,04,24.50
2021,06,29,01,05,24.70
2021,06,29,01,06,24.80
2021,06,29,01,07,25.00
2021,06,29,01,08,25.20
2021,06,29,01,09,25.40
2021,06,29,01,10,25.60
2021,06,29,01,11,25.60
2021,06,29,01,12,25.60
2021,06,29,01,13,25.60
2021,06,29,01,14,25.50
2021,06,29,01,15,25.40
2021,06,29,01,16,25.40
2021,06,29,01,17,25.40
2021,06,29,01,18,25.30
2021,06,29,01,19,25.30
2021,06,29,01,20,25.30
2021,06,29,01,21,25.30
2021,06,29,01,22,25.30
2021,06,29,01,23,25.30
2021,06,29,01,24,25.20
2021,06,29,01,25,25.20
2021,06,29,01,26,25.20
2021,06,29,01,27,25.20
2021,06,29,01,28,25.20
2021,06,29,01,29,25.20
2021,06,29,01,30,25.20
2021,06,29,01,31,25.10
2021,06,29,01,32,25.10
2021,06,29,01,33,25.10
2021,06,29,01,34,25.10
2021,06,29,01,35,25.10
2021,06,29,01,36,25.10
2021,06,29,01,37,25.10
2021,06,29,01,38,25.10
2021,06,29,01,39,25.20
2021,06,29,01,40,25.20
2021,06,29,01,41,25.20
2021,06,29,01,42,25.20
2021,06,29,01,43,25.30
2021,06,29,01,44,25.30
2021,06,29,01,45,25.30
2021,06,29,01,46,25.30
2021,06,29,01,47,25.30
2021,06,29,01,48,25.20
2021,06,29,01,49,25.10
2021,06,29,01,50,25.10
2021,06,29,01,51,25.00
2021,06,29,01,52,24.90
2021,06,29,01,53,24.90
2021,06,29,01,54,24.80
2021,06,29,01,55,24.80
2021,06,29,01,56,24.80
2021,06,29,01,57,24.80
2021,06,29,01,58,24.80
2021,06,29,01,59,24.80
2021,06,29,02,00,24.80
2021,06,29,02,01,24.80
2021,06,29,02,02,24.80
2021,06,29,02,03,24.80
2021,06,29,02,04,24.80
2021,06,29,02,05,24.80
2021,06,29,02,06,24.90
2021,06,29,02,07,24.90
2021,06,29,02,08,24.90
2021,06,29,02,09,25.00
2021,06,29,02,10,25.00
2021,06,29,02,11,25.00
2021,06,29,02,12,25.00
2021,06,29,02,13,25.00
2021,06,29,02,14,25.10
2021,06,29,02,15,25.10
2021,06,29,02,16,25.10
2021,06,29,02,17,25.10
2021,06,29,02,18,25.00
2021,06,29,02,19,25.00
2021,06,29,02,20,25.00
2021,06,29,02,21,25.10
2021,06,29,02,22,25.10
2021,06,29,02,23,25.10
2021,06,29,02,24,25.10
2021,06,29,02,25,25.00
2021,06,29,02,26,25.00
2021,06,29,02,27,25.00
2021,06,29,02,28,24.90
2021,06,29,02,29,24.90
2021,06,29,02,30,25.00
2021,06,29,02,31,25.00
2021,06,29,02,32,25.10
2021,06,29,02,33,25.10
2021,06,29,02,34,25.10
2021,06,29,02,35,25.20
2021,06,29,02,36,25.20
2021,06,29,02,37,25.20
2021,06,29,02,38,25.20
2021,06,29,02,39,25.30
2021,06,29,02,40,25.30
2021,06,29,02,41,25.30
2021,06,29,02,42,25.40
2021,06,29,02,43,25.40
2021,06,29,02,44,25.40
2021,06,29,02,45,25.40
2021,06,29,02,46,25.40
2021,06,29,02,47,25.50
2021,06,29,02,48,25.40
2021,06,29,02,49,25.30
2021,06,29,02,50,25.30
2021,06,29,02,51,25.30
2021,06,29,02,52,25.20
2021,06,29,02,53,25.20
2021,06,29,02,54,25.20
2021,06,29,02,55,25.10
2021,06,29,02,56,25.00
2021,06,29,02,57,24.90
2021,06,29,02,58,24.90
2021,06,29,02,59,24.80
2021,06,29,03,00,24.80
2021,06,29,03,01,24.80
2021,06,29,03,02,24.80
2021,06,29,03,03,24.80
2021,06,29,03,04,24.80
2021,06,29,03,05,24.90
2021,06,29,03,06,24.80
2021,06,29,03,07,24.90
2021,06,29,03,08,24.90
2021,06,29,03,09,24.90
2021,06,29,03,10,24.90
2021,06,29,03,11,24.90
2021,06,29,03,12,24.90
2021,06,29,03,13,25.00
2021,06,29,03,14,25.00
2021,06,29,03,15,25.10
2021,06,29,03,16,25.10
2021,06,29,03,17,25.10
2021,06,29,03,18,25.20
2021,06,29,03,19,25.20
2021,06,29,03,20,25.20
2021,06,29,03,21,25.20
2021,06,29,03,22,25.20
2021,06,29,03,23,25.30
2021,06,29,03,24,25.30
2021,06,29,03,25,25.30
2021,06,29,03,26,25.30
2021,06,29,03,27,25.30
2021,06,29,03,28,25.30
2021,06,29,03,29,25.30
2021,06,29,03,30,25.30
2021,06,29,03,31,25.30
2021,06,29,03,32,25.40
2021,06,29,03,33,25.40
2021,06,29,03,34,25.40
2021,06,29,03,35,25.30
2021,06,29,03,36,25.40
2021,06,29,03,37,25.40
2021,06,29,03,38,25.40
2021,06,29,03,39,25.40
2021,06,29,03,40,25.30
2021,06,29,03,41,25.30
2021,06,29,03,42,25.30
2021,06,29,03,43,25.30
2021,06,29,03,44,25.30
2021,06,29,03,45,25.30
2021,06,29,03,46,25.30
2021,06,29,03,47,25.30
2021,06,29,03,48,25.40
2021,06,29,03,49,25.40
2021,06,29,03,50,25.40
2021,06,29,03,51,25.50
2021,06,29,03,52,25.60
2021,06,29,03,53,25.70
2021,06,29,03,54,25.70
2021,06,29,03,55,25.80
2021,06,29,03,56,25.90
2021,06,29,03,57,25.90
2021,06,29,03,58,26.00
2021,06,29,03,59,26.00
2021,06,29,04,00,26.10
2021,06,29,04,01,26.10
2021,06,29,04,02,26.20
2021,06,29,04,03,26.20
2021,06,29,04,04,26.30
2021,06,29,04,05,26.30
2021,06,29,04,06,26.30
2021,06,29,04,07,26.40
2021,06,29,04,08,26.50
2021,06,29,04,09,26.60
2021,06,29,04,10,26.70
2021,06,29,04,11,26.90
2021,06,29,04,12,27.00
2021,06,29,04,13,27.20
2021,06,29,04,14,27.20
2021,06,29,04,15,27.20
2021,06,29,04,16,27.10
2021,06,29,04,17,27.00
2021,06,29,04,18,26.90
2021,06,29,04,19,26.80
2021,06,29,04,20,26.80
2021,06,29,04,21,26.70
2021,06,29,04,22,26.60
2021,06,29,04,23,26.50
2021,06,29,04,24,26.50
2021,06,29,04,25,26.40
2021,06,29,04,26,26.40
2021,06,29,04,27,26.40
2021,06,29,04,28,26.40
2021,06,29,04,29,26.40
2021,06,29,04,30,26.40
2021,06,29,04,31,26.40
2021,06,29,04,32,26.40
2021,06,29,04,33,26.50
2021,06,29,04,34,26.50
2021,06,29,04,35,26.40
2021,06,29,04,36,26.40
2021,06,29,04,37,26.30
2021,06,29,04,38,26.20
2021,06,29,04,39,26.20
2021,06,29,04,40,26.20
2021,06,29,04,41,26.10
2021,06,29,04,42,26.10
2021,06,29,04,43,26.10
2021,06,29,04,44,26.00
2021,06,29,04,45,25.90
2021,06,29,04,46,25.90
2021,06,29,04,47,25.80
2021,06,29,04,48,25.80
2021,06,29,04,49,25.90
2021,06,29,04,50,25.80
2021,06,29,04,51,25.70
2021,06,29,04,52,25.60
2021,06,29,04,53,25.60
2021,06,29,04,54,25.60
2021,06,29,04,55,25.60
2021,06,29,04,56,25.50
2021,06,29,04,57,25.50
2021,06,29,04,58,25.50
2021,06,29,04,59,25.30
2021,06,29,05,00,25.20
2021,06,29,05,01,25.10
2021,06,29,05,02,25.00
2021,06,29,05,03,24.90
2021,06,29,05,04,24.90
2021,06,29,05,05,24.80
2021,06,29,05,06,24.80
2021,06,29,05,07,24.70
2021,06,29,05,08,24.70
2021,06,29,05,09,24.60
2021,06,29,05,10,24.40
2021,06,29,05,11,24.30
2021,06,29,05,12,24.20
2021,06,29,05,13,24.10
2021,06,29,05,14,24.00
2021,06,29,05,15,23.90
2021,06,29,05,16,23.80
2021,06,29,05,17,23.70
2021,06,29,05,18,23.50
2021,06,29,05,19,23.40
2021,06,29,05,20,23.30
2021,06,29,05,21,23.20
2021,06,29,05,22,23.10
2021,06,29,05,23,23.00
2021,06,29,05,24,22.90
2021,06,29,05,25,22.80
2021,06,29,05,26,22.60
2021,06,29,05,27,22.50
2021,06,29,05,28,22.40
2021,06,29,05,29,22.30
2021,06,29,05,30,22.30
2021,06,29,05,31,22.20
2021,06,29,05,32,22.10
2021,06,29,05,33,22.10
2021,06,29,05,34,22.00
2021,06,29,05,35,21.90
2021,06,29,05,36,21.90
2021,06,29,05,37,21.80
2021,06,29,05,38,21.80
2021,06,29,05,39,21.70
2021,06,29,05,40,21.70
2021,06,29,05,41,21.70
2021,06,29,05,42,21.60
2021,06,29,05,43,21.60
2021,06,29,05,44,21.60
2021,06,29,05,45,21.50
2021,06,29,05,46,21.50
2021,06,29,05,47,21.50
2021,06,29,05,48,21.40
2021,06,29,05,49,21.40
2021,06,29,05,50,21.40
2021,06,29,05,51,21.40
2021,06,29,05,52,21.30
2021,06,29,05,53,21.30
2021,06,29,05,54,21.30
2021,06,29,05,55,21.30
2021,06,29,05,56,21.30
2021,06,29,05,57,21.30
2021,06,29,05,58,21.20
2021,06,29,05,59,21.20
2021,06,29,06,00,21.10
2021,06,29,06,01,21.10
2021,06,29,06,02,21.10
2021,06,29,06,03,21.10
2021,06,29,06,04,21.10
2021,06,29,06,05,21.20
2021,06,29,06,06,21.20
2021,06,29,06,07,21.20
2021,06,29,06,08,21.20
2021,06,29,06,09,21.30
2021,06,29,06,10,21.30
2021,06,29,06,11,21.40
2021,06,29,06,12,21.40
2021,06,29,06,13,21.40
2021,06,29,06,14,21.40
2021,06,29,06,15,21.40
2021,06,29,06,16,21.40
2021,06,29,06,17,21.40
2021,06,29,06,18,21.40
2021,06,29,06,19,21.40
2021,06,29,06,20,21.30
2021,06,29,06,21,21.30
2021,06,29,06,22,21.30
2021,06,29,06,23,21.30
2021,06,29,06,24,21.20
2021,06,29,06,25,21.20
2021,06,29,06,26,21.10
2021,06,29,06,27,21.10
2021,06,29,06,28,21.10
2021,06,29,06,29,21.10
2021,06,29,06,30,21.10
2021,06,29,06,31,21.00
2021,06,29,06,32,21.00
2021,06,29,06,33,21.00
2021,06,29,06,34,21.10
2021,06,29,06,35,21.10
2021,06,29,06,36,21.10
2021,06,29,06,37,21.10
2021,06,29,06,38,21.10
2021,06,29,06,39,21.10
2021,06,29,06,40,21.10
2021,06,29,06,41,21.10
2021,06,29,06,42,21.10
2021,06,29,06,43,21.10
2021,06,29,06,44,21.00
2021,06,29,06,45,21.00
2021,06,29,06,46,20.90
2021,06,29,06,47,20.80
2021,06,29,06,48,20.60
2021,06,29,06,49,20.50
2021,06,29,06,50,20.40
2021,06,29,06,51,20.30
2021,06,29,06,52,20.20
2021,06,29,06,53,20.20
2021,06,29,06,54,20.20
2021,06,29,06,55,20.20
2021,06,29,06,56,20.20
2021,06,29,06,57,20.20
2021,06,29,06,58,20.20
2021,06,29,06,59,20.20
2021,06,29,07,00,20.20
2021,06,29,07,01,20.20
2021,06,29,07,02,20.20
2021,06,29,07,03,20.10
2021,06,29,07,04,20.00
2021,06,29,07,05,19.80
2021,06,29,07,06,19.70
2021,06,29,07,07,19.60
2021,06,29,07,08,19.50
2021,06,29,07,09,19.40
2021,06,29,07,10,19.30
2021,06,29,07,11,19.30
2021,06,29,07,12,19.30
2021,06,29,07,13,19.20
2021,06,29,07,14,19.20
2021,06,29,07,15,19.10
2021,06,29,07,16,19.10
2021,06,29,07,17,19.00
2021,06,29,07,18,18.90
2021,06,29,07,19,18.90
2021,06,29,07,20,18.90
2021,06,29,07,21,18.90
2021,06,29,07,22,18.90
2021,06,29,07,23,18.90
2021,06,29,07,24,18.90
2021,06,29,07,25,19.00
2021,06,29,07,26,18.90
2021,06,29,07,27,18.90
2021,06,29,07,28,18.90
2021,06,29,07,29,18.90
2021,06,29,07,30,18.80
2021,06,29,07,31,18.80
2021,06,29,07,32,18.80
2021,06,29,07,33,18.80
2021,06,29,07,34,18.90
2021,06,29,07,35,18.90
2021,06,29,07,36,18.90
2021,06,29,07,37,18.90
2021,06,29,07,38,18.90
2021,06,29,07,39,18.90
2021,06,29,07,40,19.00
2021,06,29,07,41,19.00
2021,06,29,07,42,19.00
2021,06,29,07,43,19.00
2021,06,29,07,44,19.00
2021,06,29,07,45,19.00
2021,06,29,07,46,19.00
2021,06,29,07,47,19.00
2021,06,29,07,48,19.00
2021,06,29,07,49,19.00
2021,06,29,07,50,19.00
2021,06,29,07,51,19.10
2021,06,29,07,52,19.00
2021,06,29,07,53,19.00
2021,06,29,07,54,18.90
2021,06,29,07,55,18.80
2021,06,29,07,56,18.70
2021,06,29,07,57,18.70
2021,06,29,07,58,18.60
2021,06,29,07,59,18.60
2021,06,29,08,00,18.60
2021,06,29,08,01,18.50
2021,06,29,08,02,18.50
2021,06,29,08,03,18.40
2021,06,29,08,04,18.40
2021,06,29,08,05,18.50
2021,06,29,08,06,18.60
2021,06,29,08,07,18.70
2021,06,29,08,08,18.70
2021,06,29,08,09,18.60
2021,06,29,08,10,18.70
2021,06,29,08,11,18.80
2021,06,29,08,12,18.90
2021,06,29,08,13,19.00
2021,06,29,08,14,19.00
2021,06,29,08,15,19.10
2021,06,29,08,16,19.10
2021,06,29,08,17,19.10
2021,06,29,08,18,19.10
2021,06,29,08,19,19.10
2021,06,29,08,20,19.20
2021,06,29,08,21,19.20
2021,06,29,08,22,19.20
2021,06,29,08,23,19.20
2021,06,29,08,24,19.30
2021,06,29,08,25,19.30
2021,06,29,08,26,19.40
2021,06,29,08,27,19.40
2021,06,29,08,28,19.50
2021,06,29,08,29,19.60
2021,06,29,08,30,19.60
2021,06,29,08,31,19.70
2021,06,29,08,32,19.80
2021,06,29,08,33,19.90
2021,06,29,08,34,19.90
2021,06,29,08,35,20.00
2021,06,29,08,36,20.10
2021,06,29,08,37,20.20
2021,06,29,08,38,20.20
2021,06,29,08,39,20.30
2021,06,29,08,40,20.40
2021,06,29,08,41,20.40
2021,06,29,08,42,20.50
2021,06,29,08,43,20.50
2021,06,29,08,44,20.60
2021,06,29,08,45,20.60
2021,06,29,08,46,20.60
2021,06,29,08,47,20.70
2021,06,29,08,48,20.80
2021,06,29,08,49,20.90
2021,06,29,08,50,21.00
2021,06,29,08,51,21.10
2021,06,29,08,52,21.20
2021,06,29,08,53,21.30
2021,06,29,08,54,21.40
2021,06,29,08,55,21.60
2021,06,29,08,56,21.80
2021,06,29,08,57,21.90
2021,06,29,08,58,21.90
2021,06,29,08,59,21.90
2021,06,29,09,00,21.80
2021,06,29,09,01,21.70
2021,06,29,09,02,21.60
2021,06,29,09,03,21.50
2021,06,29,09,04,21.40
2021,06,29,09,05,21.40
2021,06,29,09,06,21.40
2021,06,29,09,07,21.40
2021,06,29,09,08,21.40
2021,06,29,09,09,21.40
2021,06,29,09,10,21.50
2021,06,29,09,11,21.60
2021,06,29,09,12,21.70
2021,06,29,09,13,21.70
2021,06,29,09,14,21.60
2021,06,29,09,15,21.50
2021,06,29,09,16,21.30
2021,06,29,09,17,21.10
2021,06,29,09,18,21.10
2021,06,29,09,19,21.10
2021,06,29,09,20,21.10
2021,06,29,09,21,21.10
2021,06,29,09,22,21.10
2021,06,29,09,23,21.00
2021,06,29,09,24,21.00
2021,06,29,09,25,21.00
2021,06,29,09,26,21.00
2021,06,29,09,27,21.10
2021,06,29,09,28,21.10
2021,06,29,09,29,21.00
2021,06,29,09,30,21.00
2021,06,29,09,31,21.00
2021,06,29,09,32,21.10
2021,06,29,09,33,21.10
2021,06,29,09,34,21.20
2021,06,29,09,35,21.30
2021,06,29,09,36,21.40
2021,06,29,09,37,21.50
2021,06,29,09,38,21.50
2021,06,29,09,39,21.40
2021,06,29,09,40,21.40
2021,06,29,09,41,21.30
2021,06,29,09,42,21.30
2021,06,29,09,43,21.30
2021,06,29,09,44,21.30
2021,06,29,09,45,21.30
2021,06,29,09,46,21.20
2021,06,29,09,47,21.10
2021,06,29,09,48,20.90
2021,06,29,09,49,20.90
2021,06,29,09,50,20.90
2021,06,29,09,51,20.90
2021,06,29,09,52,21.00
2021,06,29,09,53,21.10
2021,06,29,09,54,21.20
2021,06,29,09,55,21.30
2021,06,29,09,56,21.40
2021,06,29,09,57,21.40
2021,06,29,09,58,21.50
2021,06,29,09,59,21.60
2021,06,29,10,00,21.80
2021,06,29,10,01,21.90
2021,06,29,10,02,22.00
2021,06,29,10,03,22.10
2021,06,29,10,04,22.20
2021,06,29,10,05,22.10
2021,06,29,10,06,22.00
2021,06,29,10,07,21.90
2021,06,29,10,08,21.80
2021,06,29,10,09,21.70
2021,06,29,10,10,21.60
2021,06,29,10,11,21.50
2021,06,29,10,12,21.40
2021,06,29,10,13,21.40
2021,06,29,10,14,21.40
2021,06,29,10,15,21.40
2021,06,29,10,16,21.50
2021,06,29,10,17,21.50
2021,06,29,10,18,21.50
2021,06,29,10,19,21.60
2021,06,29,10,20,21.60
2021,06,29,10,21,21.70
2021,06,29,10,22,21.80
2021,06,29,10,23,21.90
2021,06,29,10,24,22.00
2021,06,29,10,25,22.10
2021,06,29,10,26,22.10
2021,06,29,10,27,22.10
2021,06,29,10,28,22.10
2021,06,29,10,29,22.00
2021,06,29,10,30,21.90
2021,06,29,10,31,21.70
2021,06,29,10,32,21.60
2021,06,29,10,33,21.50
2021,06,29,10,34,21.50
2021,06,29,10,35,21.50
2021,06,29,10,36,21.40
2021,06,29,10,37,21.50
2021,06,29,10,38,21.40
2021,06,29,10,39,21.40
2021,06,29,10,40,21.40
2021,06,29,10,41,21.40
2021,06,29,10,42,21.40
2021,06,29,10,43,21.40
2021,06,29,10,44,21.50
2021,06,29,10,45,21.60
2021,06,29,10,46,21.60
2021,06,29,10,47,21.60
2021,06,29,10,48,21.70
2021,06,29,10,49,21.80
2021,06,29,10,50,21.90
2021,06,29,10,51,21.80
2021,06,29,10,52,21.80
2021,06,29,10,53,21.70
2021,06,29,10,54,21.70
2021,06,29,10,55,21.60
2021,06,29,10,56,21.60
2021,06,29,10,57,21.50
2021,06,29,10,58,21.40
2021,06,29,10,59,21.50
2021,06,29,11,00,21.50
2021,06,29,11,01,21.50
2021,06,29,11,02,21.40
2021,06,29,11,03,21.40
2021,06,29,11,04,21.40
2021,06,29,11,05,21.30
2021,06,29,11,06,21.30
2021,06,29,11,07,21.40
2021,06,29,11,08,21.50
2021,06,29,11,09,21.60
2021,06,29,11,10,21.70
2021,06,29,11,11,21.80
2021,06,29,11,12,21.80
2021,06,29,11,13,21.90
2021,06,29,11,14,21.90
2021,06,29,11,15,21.90
2021,06,29,11,16,22.00
2021,06,29,11,17,22.00
2021,06,29,11,18,22.00
2021,06,29,11,19,22.00
2021,06,29,11,20,22.00
2021,06,29,11,21,22.10
2021,06,29,11,22,22.10
2021,06,29,11,23,22.10
2021,06,29,11,24,22.20
2021,06,29,11,25,22.20
2021,06,29,11,26,22.30
2021,06,29,11,27,22.30
2021,06,29,11,28,22.40
2021,06,29,11,29,22.30
2021,06,29,11,30,22.40
2021,06,29,11,31,22.30
2021,06,29,11,32,22.20
2021,06,29,11,33,22.10
2021,06,29,11,34,22.00
2021,06,29,11,35,21.90
2021,06,29,11,36,21.80
2021,06,29,11,37,21.70
2021,06,29,11,38,21.70
2021,06,29,11,39,21.70
2021,06,29,11,40,21.70
2021,06,29,11,41,21.70
2021,06,29,11,42,21.60
2021,06,29,11,43,21.60
2021,06,29,11,44,21.60
2021,06,29,11,45,21.60
2021,06,29,11,46,21.60
2021,06,29,11,47,21.60
2021,06,29,11,48,21.60
2021,06,29,11,49,21.60
2021,06,29,11,50,21.60
2021,06,29,11,51,21.70
2021,06,29,11,52,21.70
2021,06,29,11,53,21.70
2021,06,29,11,54,21.60
2021,06,29,11,55,21.50
2021,06,29,11,56,21.40
2021,06,29,11,57,21.40
2021,06,29,11,58,21.40
2021,06,29,11,59,21.50
2021,06,29,12,00,21.50
2021,06,29,12,01,21.60
2021,06,29,12,02,21.60
2021,06,29,12,03,21.70
2021,06,29,12,04,21.80
2021,06,29,12,05,21.80
2021,06,29,12,06,21.80
2021,06,29,12,07,21.70
2021,06,29,12,08,21.70
2021,06,29,12,09,21.70
2021,06,29,12,10,21.80
2021,06,29,12,11,21.80
2021,06,29,12,12,21.80
2021,06,29,12,13,21.70
2021,06,29,12,14,21.60
2021,06,29,12,15,21.60
2021,06,29,12,16,21.60
2021,06,29,12,17,21.60
2021,06,29,12,18,21.50
2021,06,29,12,19,21.40
2021,06,29,12,20,21.30
2021,06,29,12,21,21.20
2021,06,29,12,22,21.20
2021,06,29,12,23,21.20
2021,06,29,12,24,21.30
2021,06,29,12,25,21.30
2021,06,29,12,26,21.30
2021,06,29,12,27,21.30
2021,06,29,12,28,21.30
2021,06,29,12,29,21.40
2021,06,29,12,30,21.50
2021,06,29,12,31,21.60
2021,06,29,12,32,21.60
2021,06,29,12,33,21.60
2021,06,29,12,34,21.40
2021,06,29,12,35,21.20
2021,06,29,12,36,21.10
2021,06,29,12,37,21.00
2021,06,29,12,38,20.90
2021,06,29,12,39,20.90
2021,06,29,12,40,20.90
2021,06,29,12,41,20.80
2021,06,29,12,42,20.80
2021,06,29,12,43,20.80
2021,06,29,12,44,20.90
2021,06,29,12,45,20.90
2021,06,29,12,46,21.00
2021,06,29,12,47,21.00
2021,06,29,12,48,21.00
2021,06,29,12,49,21.00
2021,06,29,12,50,20.90
2021,06,29,12,51,20.90
2021,06,29,12,52,21.00
2021,06,29,12,53,21.10
2021,06,29,12,54,21.20
2021,06,29,12,55,21.40
2021,06,29,12,56,21.50
2021,06,29,12,57,21.70
2021,06,29,12,58,21.80
2021,06,29,12,59,21.90
2021,06,29,13,00,21.90
2021,06,29,13,01,21.80
2021,06,29,13,02,21.80
2021,06,29,13,03,21.80
2021,06,29,13,04,21.80
2021,06,29,13,05,21.80
2021,06,29,13,06,21.70
2021,06,29,13,07,21.70
2021,06,29,13,08,21.60
2021,06,29,13,09,21.60
2021,06,29,13,10,21.60
2021,06,29,13,11,21.60
2021,06,29,13,12,21.60
2021,06,29,13,13,21.60
2021,06,29,13,14,21.50
2021,06,29,13,15,21.50
2021,06,29,13,16,21.50
2021,06,29,13,17,21.60
2021,06,29,13,18,21.70
2021,06,29,13,19,21.80
2021,06,29,13,20,21.90
2021,06,29,13,21,21.90
2021,06,29,13,22,22.00
2021,06,29,13,23,21.90
2021,06,29,13,24,21.80
2021,06,29,13,25,21.80
2021,06,29,13,26,21.90
2021,06,29,13,27,21.90
2021,06,29,13,28,22.10
2021,06,29,13,29,22.20
2021,06,29,13,30,22.20
2021,06,29,13,31,22.20
2021,06,29,13,32,22.10
2021,06,29,13,33,21.90
2021,06,29,13,34,21.80
2021,06,29,13,35,21.70
2021,06,29,13,36,21.60
2021,06,29,13,37,21.50
2021,06,29,13,38,21.50
2021,06,29,13,39,21.60
2021,06,29,13,40,21.70
2021,06,29,13,41,21.80
2021,06,29,13,42,21.90
2021,06,29,13,43,21.90
2021,06,29,13,44,21.90
2021,06,29,13,45,21.90
2021,06,29,13,46,21.90
2021,06,29,13,47,21.90
2021,06,29,13,48,21.80
2021,06,29,13,49,21.80
2021,06,29,13,50,21.80
2021,06,29,13,51,21.80
2021,06,29,13,52,21.80
2021,06,29,13,53,21.80
2021,06,29,13,54,21.80
2021,06,29,13,55,21.80
2021,06,29,13,56,21.90
2021,06,29,13,57,22.00
2021,06,29,13,58,22.10
2021,06,29,13,59,22.30
2021,06,29,14,00,22.40
2021,06,29,14,01,22.40
2021,06,29,14,02,22.50
2021,06,29,14,03,22.60
2021,06,29,14,04,22.70
2021,06,29,14,05,22.80
2021,06,29,14,06,22.90
2021,06,29,14,07,23.00
2021,06,29,14,08,23.00
2021,06,29,14,09,23.00
2021,06,29,14,10,23.20
2021,06,29,14,11,23.20
2021,06,29,14,12,23.30
2021,06,29,14,13,23.40
2021,06,29,14,14,23.40
2021,06,29,14,15,23.40
2021,06,29,14,16,23.50
2021,06,29,14,17,23.50
2021,06,29,14,18,23.50
2021,06,29,14,19,23.50
2021,06,29,14,20,23.40
2021,06,29,14,21,23.40
2021,06,29,14,22,23.40
2021,06,29,14,23,23.40
2021,06,29,14,24,23.40
2021,06,29,14,25,23.30
2021,06,29,14,26,23.20
2021,06,29,14,27,23.20
2021,06,29,14,28,23.20
2021,06,29,14,29,23.20
2021,06,29,14,30,23.20
2021,06,29,14,31,23.30
2021,06,29,14,32,23.30
2021,06,29,14,33,23.40
2021,06,29,14,34,23.50
2021,06,29,14,35,23.50
2021,06,29,14,36,23.50
2021,06,29,14,37,23.50
2021,06,29,14,38,23.60
2021,06,29,14,39,23.70
2021,06,29,14,40,23.70
2021,06,29,14,41,23.70
2021,06,29,14,42,23.60
2021,06,29,14,43,23.60
2021,06,29,14,44,23.60
2021,06,29,14,45,23.60
2021,06,29,14,46,23.60
2021,06,29,14,47,23.70
2021,06,29,14,48,23.70
2021,06,29,14,49,23.70
2021,06,29,14,50,23.70
2021,06,29,14,51,23.70
2021,06,29,14,52,23.60
2021,06,29,14,53,23.60
2021,06,29,14,54,23.70
2021,06,29,14,55,23.70
2021,06,29,14,56,23.70
2021,06,29,14,57,23.70
2021,06,29,14,58,23.60
2021,06,29,14,59,23.50
2021,06,29,15,00,23.50
2021,06,29,15,01,23.50
2021,06,29,15,02,23.50
2021,06,29,15,03,23.50
2021,06,29,15,04,23.60
2021,06,29,15,05,23.70
2021,06,29,15,06,23.80
2021,06,29,15,07,23.90
2021,06,29,15,08,24.00
2021,06,29,15,09,24.10
2021,06,29,15,10,24.10
2021,06,29,15,11,24.10
2021,06,29,15,12,24.10
2021,06,29,15,13,24.10
2021,06,29,15,14,24.00
2021,06,29,15,15,24.00
2021,06,29,15,16,23.90
2021,06,29,15,17,23.80
2021,06,29,15,18,23.70
2021,06,29,15,19,23.70
2021,06,29,15,20,23.70
2021,06,29,15,21,23.80
2021,06,29,15,22,23.80
2021,06,29,15,23,23.80
2021,06,29,15,24,23.80
2021,06,29,15,25,23.70
2021,06,29,15,26,23.70
2021,06,29,15,27,23.70
2021,06,29,15,28,23.70
2021,06,29,15,29,23.60
2021,06,29,15,30,23.60
2021,06,29,15,31,23.70
2021,06,29,15,32,23.80
2021,06,29,15,33,23.80
2021,06,29,15,34,23.80
2021,06,29,15,35,23.80
2021,06,29,15,36,23.80
2021,06,29,15,37,23.90
2021,06,29,15,38,24.10
2021,06,29,15,39,24.20
2021,06,29,15,40,24.20
2021,06,29,15,41,24.20
2021,06,29,15,42,24.20
2021,06,29,15,43,24.30
2021,06,29,15,44,24.30
2021,06,29,15,45,24.30
2021,06,29,15,46,24.30
2021,06,29,15,47,24.40
2021,06,29,15,48,24.40
2021,06,29,15,49,24.40
2021,06,29,15,50,24.40
2021,06,29,15,51,24.40
2021,06,29,15,52,24.30
2021,06,29,15,53,24.30
2021,06,29,15,54,24.20
2021,06,29,15,55,24.20
2021,06,29,15,56,24.20
2021,06,29,15,57,24.20
2021,06,29,15,58,24.30
2021,06,29,15,59,24.30
2021,06,29,16,00,24.30
2021,06,29,16,01,24.30
2021,06,29,16,02,24.20
2021,06,29,16,03,24.20
2021,06,29,16,04,24.20
2021,06,29,16,05,24.20
2021,06,29,16,06,24.30
2021,06,29,16,07,24.30
2021,06,29,16,08,24.30
2021,06,29,16,09,24.30
2021,06,29,16,10,24.40
2021,06,29,16,11,24.40
2021,06,29,16,12,24.50
2021,06,29,16,13,24.40
2021,06,29,16,14,24.30
2021,06,29,16,15,24.30
2021,06,29,16,16,24.30
2021,06,29,16,17,24.20
2021,06,29,16,18,24.20
2021,06,29,16,19,24.30
2021,06,29,16,20,24.30
2021,06,29,16,21,24.40
2021,06,29,16,22,24.40
2021,06,29,16,23,24.30
2021,06,29,16,24,24.20
2021,06,29,16,25,24.10
2021,06,29,16,26,24.00
2021,06,29,16,27,24.00
2021,06,29,16,28,23.90
2021,06,29,16,29,23.90
2021,06,29,16,30,23.90
2021,06,29,16,31,23.90
2021,06,29,16,32,23.90
2021,06,29,16,33,24.00
2021,06,29,16,34,24.10
2021,06,29,16,35,24.20
2021,06,29,16,36,24.30
2021,06,29,16,37,24.30
2021,06,29,16,38,24.30
2021,06,29,16,39,24.30
2021,06,29,16,40,24.30
2021,06,29,16,41,24.30
2021,06,29,16,42,24.30
2021,06,29,16,43,24.20
2021,06,29,16,44,24.20
2021,06,29,16,45,24.20
2021,06,29,16,46,24.30
2021,06,29,16,47,24.20
2021,06,29,16,48,24.20
2021,06,29,16,49,24.20
2021,06,29,16,50,24.20
2021,06,29,16,51,24.20
2021,06,29,16,52,24.20
2021,06,29,16,53,24.10
2021,06,29,16,54,24.10
2021,06,29,16,55,24.10
2021,06,29,16,56,24.20
2021,06,29,16,57,24.20
2021,06,29,16,58,24.20
2021,06,29,16,59,24.30
2021,06,29,17,00,24.30
2021,06,29,17,01,24.40
2021,06,29,17,02,24.40
2021,06,29,17,03,24.50
2021,06,29,17,04,24.50
2021,06,29,17,05,24.60
2021,06,29,17,06,24.60
2021,06,29,17,07,24.70
2021,06,29,17,08,24.70
2021,06,29,17,09,24.70
2021,06,29,17,10,24.70
2021,06,29,17,11,24.70
2021,06,29,17,12,24.70
2021,06,29,17,13,24.70
2021,06,29,17,14,24.60
2021,06,29,17,15,24.60
2021,06,29,17,16,24.50
2021,06,29,17,17,24.40
2021,06,29,17,18,24.40
2021,06,29,17,19,24.40